| time (UTC) | temp F | wind direction | speed knots | gust knots | rain 1hr in | rain 24hr in | rain mn in | humidity % | barometer mb |
| 20260504044507 | 58 | 125 | 0.0 | 0.0 | 0.00 | 0.00 | 0.00 | 63 | 1009.7 |
| 20260504043007 | 58 | 124 | 0.0 | 0.0 | 0.00 | 0.00 | 0.00 | 63 | 1009.6 |
| 20260504041509 | 58 | 132 | 0.0 | 0.0 | 0.00 | 0.00 | 0.00 | 63 | 1009.7 |
| 20260504040005 | 59 | 116 | 0.0 | 0.0 | 0.00 | 0.00 | 0.00 | 61 | 1009.7 |
| 20260504034504 | 60 | 112 | 0.0 | 0.0 | 0.00 | 0.00 | 0.00 | 60 | 1009.7 |
| 20260504033008 | 60 | 97 | 0.0 | 0.0 | 0.00 | 0.00 | 0.00 | 59 | 1009.8 |
| 20260504031505 | 61 | 92 | 0.0 | 1.7 | 0.00 | 0.00 | 0.00 | 58 | 1009.9 |
| 20260504030004 | 60 | 107 | 0.0 | 0.9 | 0.00 | 0.00 | 0.00 | 59 | 1010.0 |
| 20260504024616 | 60 | 96 | 0.0 | 0.0 | 0.00 | 0.00 | 0.00 | 59 | 1009.9 |
| 20260504023059 | 60 | 96 | 0.0 | 0.0 | 0.00 | 0.00 | 0.00 | 58 | 1009.9 |
| 20260504021558 | 61 | 98 | 0.0 | 0.0 | 0.00 | 0.00 | 0.00 | 57 | 1010.0 |
| 20260504020058 | 62 | 100 | 0.0 | 0.0 | 0.00 | 0.00 | 0.00 | 55 | 1009.9 |
| 20260504014604 | 62 | 119 | 0.0 | 0.0 | 0.00 | 0.00 | 0.00 | 54 | 1009.7 |
| 20260504013058 | 64 | 137 | 0.0 | 0.0 | 0.00 | 0.00 | 0.00 | 51 | 1009.7 |
| 20260504011555 | 65 | 137 | 0.0 | 0.0 | 0.00 | 0.00 | 0.00 | 48 | 1009.6 |
| 20260504004554 | 67 | 137 | 0.0 | 0.0 | 0.00 | 0.00 | 0.00 | 43 | 1009.4 |
| 20260504003056 | 68 | 128 | 0.0 | 0.0 | 0.00 | 0.00 | 0.00 | 42 | 1009.4 |
| 20260504001552 | 68 | 113 | 0.0 | 2.6 | 0.00 | 0.00 | 0.00 | 43 | 1009.4 |
| 20260504000128 | 69 | 113 | 0.0 | 7.0 | 0.00 | 0.00 | 0.00 | 42 | 1009.4 |
| 20260503234558 | 69 | 109 | 0.0 | 4.3 | 0.00 | 0.00 | 0.00 | 42 | 1009.5 |
| 20260503233049 | 69 | 71 | 0.0 | 10.4 | 0.00 | 0.00 | 0.00 | 41 | 1009.5 |
| 20260503231547 | 69 | 134 | 0.9 | 13.9 | 0.00 | 0.00 | 0.00 | 40 | 1009.8 |
| 20260503230147 | 69 | 105 | 0.0 | 12.2 | 0.00 | 0.00 | 0.00 | 42 | 1009.8 |
| 20260503224544 | 69 | 175 | 0.9 | 11.3 | 0.00 | 0.00 | 0.00 | 40 | 1010.0 |
| 20260503223044 | 69 | 105 | 0.0 | 10.4 | 0.00 | 0.00 | 0.00 | 40 | 1010.1 |
| 20260503221550 | 69 | 81 | 3.5 | 14.8 | 0.00 | 0.00 | 0.00 | 39 | 1010.0 |
| 20260503220041 | 69 | 74 | 4.3 | 14.8 | 0.00 | 0.00 | 0.00 | 41 | 1010.0 |
| 20260503214542 | 68 | 111 | 3.5 | 13.0 | 0.00 | 0.00 | 0.00 | 41 | 1010.1 |
| 20260503213035 | 68 | 98 | 5.2 | 21.7 | 0.00 | 0.00 | 0.00 | 42 | 1010.3 |
| 20260503211531 | 67 | 135 | 6.1 | 20.9 | 0.00 | 0.00 | 0.00 | 42 | 1010.6 |
| 20260503210029 | 67 | 73 | 5.2 | 23.5 | 0.00 | 0.00 | 0.00 | 42 | 1011.0 |
| 20260503204526 | 66 | 121 | 7.0 | 22.6 | 0.00 | 0.00 | 0.00 | 42 | 1011.3 |
| 20260503203038 | 66 | 101 | 6.1 | 17.4 | 0.00 | 0.00 | 0.00 | 41 | 1011.4 |
| 20260503201521 | 65 | 108 | 7.0 | 20.0 | 0.00 | 0.00 | 0.00 | 43 | 1011.8 |
| 20260503200017 | 64 | 61 | 9.6 | 20.9 | 0.00 | 0.00 | 0.00 | 48 | 1012.2 |
| 20260503194515 | 63 | 99 | 5.2 | 21.7 | 0.00 | 0.00 | 0.00 | 49 | 1012.6 |
| 20260503193012 | 63 | 132 | 7.8 | 22.6 | 0.00 | 0.00 | 0.00 | 49 | 1013.0 |
| 20260503191511 | 63 | 92 | 7.0 | 17.4 | 0.00 | 0.00 | 0.00 | 46 | 1013.2 |
| 20260503190009 | 62 | 60 | 7.0 | 19.1 | 0.00 | 0.00 | 0.00 | 46 | 1012.9 |
| 20260503184507 | 62 | 94 | 7.8 | 20.0 | 0.00 | 0.00 | 0.00 | 45 | 1012.9 |
| 20260503183004 | 62 | 100 | 12.2 | 27.8 | 0.00 | 0.00 | 0.00 | 44 | 1013.2 |
| 20260503181503 | 61 | 89 | 7.0 | 26.1 | 0.00 | 0.00 | 0.00 | 47 | 1013.1 |
| 20260503180114 | 61 | 44 | 6.1 | 18.2 | 0.00 | 0.00 | 0.00 | 47 | 1013.5 |
| 20260503174555 | 60 | 115 | 8.7 | 26.1 | 0.00 | 0.00 | 0.00 | 50 | 1013.9 |
| 20260503173058 | 59 | 74 | 7.0 | 17.4 | 0.00 | 0.00 | 0.00 | 55 | 1014.3 |
| 20260503171548 | 58 | 105 | 8.7 | 20.9 | 0.00 | 0.00 | 0.00 | 58 | 1014.7 |
| 20260503081522 | 48 | 86 | 0.0 | 6.1 | 0.00 | 0.01 | 0.00 | 52 | 1019.0 |
| 20260503071512 | 48 | 103 | 0.0 | 8.7 | 0.00 | 0.01 | 0.01 | 53 | 1019.3 |
| 20260503054610 | 48 | 128 | 0.0 | 7.8 | 0.00 | 0.01 | 0.01 | 53 | 1020.1 |
| 20260503053056 | 48 | 113 | 0.0 | 6.1 | 0.00 | 0.01 | 0.01 | 53 | 1020.2 |
| 20260503051554 | 48 | 115 | 0.9 | 6.1 | 0.00 | 0.01 | 0.01 | 53 | 1020.3 |
| 20260503050053 | 48 | 121 | 0.9 | 7.0 | 0.00 | 0.01 | 0.01 | 54 | 1020.4 |